Regional Weather Roundup
Issued by NWS

Home | Current Version | Previous Version | Graphics & Text | Print | Product List | Glossary On
Versions: 1 2 3 4 5 6 7 8 9 10 11 12 13 14 15 16 17 18 19 20 21 22 23 24 25 26 27 28 29 30 31 32 33 34 35 36 37 38 39 40 41 42 43 44 45 46 47 48 49 50
000
ASUS43 KDMX 300006
RWRIA

WEATHER ROUNDUP FOR IOWA
NATIONAL WEATHER SERVICE DES MOINES IA
700 PM CDT SAT APR 29 2017

NOTE: "FAIR" INDICATES FEW OR NO CLOUDS BELOW 12,000 FEET WITH NO
SIGNIFICANT WEATHER AND/OR OBSTRUCTIONS TO VISIBILITY.

* - THESE STATIONS ARE NOT NWS STATIONS...THUS NOT UNDER NWS
QUALITY CONTROL.  THEY ALSO DO NOT REPORT WEATHER SUCH
AS PRECIPITATION OR FOG.

IAZ001>003-012>014-020>022-031>034-043>046-300100-
   NORTHWEST IOWA

CITY           SKY/WX    TMP DP  RH WIND       PRES   REMARKS
CARROLL *      PTSUNNY   45  34  65 NE26G35   30.03F
CHEROKEE *     CLOUDY    48  29  47 NE17      30.07S
DENISON *      CLOUDY    45  34  65 NE16G28   30.04F
LE MARS *      CLOUDY    50  27  40 NE18G24   30.09R
ORANGE CITY *  CLOUDY    50  28  43 E16G23    30.09R
SHELDON *      CLOUDY    50  25  37 NE24G30   30.09R
SIOUX CITY     CLOUDY    50  27  40 NE18G26   30.07S
6HR MIN TEMP:  49; 6HR MAX TEMP:  52;

SPENCER        CLOUDY    49  26  41 NE26G35   30.09R
6HR MIN TEMP:  48; 6HR MAX TEMP:  50;

STORM LAKE *   CLOUDY    46  28  49 NE24G35   30.06R
$$

IAZ055>058-069>071-079>083-090>094-300100-
   SOUTHWEST IOWA

CITY           SKY/WX    TMP DP  RH WIND       PRES   REMARKS
ATLANTIC *     MIX PCPN  43  37  81 NE21G33   29.98F
AUDUBON *      CLOUDY    43  37  81 NE18G24   30.02S
CLARINDA *     CLOUDY    43  43 100 NE15G28   29.94F FOG
COUNCIL BLFS * CLOUDY    41  41 100 NE20G31   29.97F FOG
CRESTON *      MIX PCPN  41  41 100 NE18G29   29.95F
HARLAN  *      CLOUDY    43  37  81 NE28G38   30.02F
LAMONI         LGT RAIN  42  41  96 NE20G26   29.91R FOG
6HR MIN TEMP:  42; 6HR MAX TEMP:  44; 6HR PCP:  0.15;

RED OAK *      MIX PCPN  43  41  93 NE18      29.96F
SHENANDOAH *   MIX PCPN  43  41  93 NE23G31   29.92F
$$

IAZ047>049-059>061-072>074-084-300100-
   CENTRAL IOWA

CITY           SKY/WX    TMP DP  RH WIND       PRES   REMARKS
AMES           CLOUDY    44  38  79 NE13G24   30.04R
6HR MIN TEMP:  43; 6HR MAX TEMP:  44; 6HR PCP:  0.07;

ANKENY *       CLOUDY    43  37  81 NE18      30.01F
BOONE *        CLOUDY    43  37  81 NE18G26   30.04R
CHARITON *     MIX PCPN  41  39  93 NE21G28   29.96R
DES MOINES     DRIZZLE   43  38  82 NE17      30.00F
6HR MIN TEMP:  43; 6HR MAX TEMP:  44; 6HR PCP:  0.09;

GRINNELL*      CLOUDY    42  37  80 NE24G30   30.00R
KNOXVILLE *    MIX PCPN  43  39  87 NE21G26   29.94F
MARSHALLTOWN   CLOUDY    43  37  79 NE18G30   30.04R
6HR MIN TEMP:  43; 6HR MAX TEMP:  44; 6HR PCP:  0.12;

NEWTON *       CLOUDY    43  37  81 NE20G29   29.98F HAZE
PELLA *        RAIN      42  39  90 NE12G20   29.99F
PERRY *        CLOUDY    43  37  78 NE14G23   30.04R
$$

IAZ004>006-015-016-023>025-035-036-300100-
   NORTH CENTRAL IOWA

CITY           SKY/WX    TMP DP  RH WIND       PRES   REMARKS
ALGONA *       CLOUDY    48  30  49 NE15G26   30.09R
CLARION *      CLOUDY    46  32  57 NE21      30.07R
ESTHERVILLE    CLOUDY    48  28  46 NE24G32   30.09R
6HR MIN TEMP:  46; 6HR MAX TEMP:  49;

FORT DODGE *   CLOUDY    45  30  57 NE10      30.08R
MASON CITY     CLOUDY    47  29  49 NE20G31   30.08R
6HR MIN TEMP:  46; 6HR MAX TEMP:  48;

FOREST CITY *  CLOUDY    48  23  37 NE13G22   30.09S
WEBSTER CITY * CLOUDY    45  32  61 NE15G22   30.05R
IOWA FALLS *   CLOUDY    45  35  67 NE12G18   30.08R
$$

IAZ007>011-017>019-026>030-037>042-050>054-066-300100-
   NORTHEAST IOWA

CITY           SKY/WX    TMP DP  RH WIND       PRES   REMARKS
CEDAR RAPIDS   CLOUDY    42  38  85 NE28G37   29.96F
6HR MIN TEMP:  42; 6HR MAX TEMP:  43; 6HR PCP:  0.13;

CHARLES CITY * CLOUDY    46  27  46 NE21G30   30.08R
CLINTON *      CLOUDY    40  37  89 E37G47    29.91F WCI  27
DECORAH *      CLOUDY    46  28  49 E16G24    30.06F
DUBUQUE        CLOUDY    41  36  82 NE28G41   29.98F
6HR MIN TEMP:  41; 6HR MAX TEMP:  45; 6HR PCP:  0.09;

MONTICELLO *   CLOUDY    43  37  81 NE22G38   30.01R
OELWEIN *      CLOUDY    43  36  75 NE24G33   30.04R
WATERLOO       CLOUDY    44  35  70 NE18G31   30.06R
6HR MIN TEMP:  43; 6HR MAX TEMP:  45; 6HR PCP:  0.02;

$$

IAZ064-065-067-068-078-300100-
   EAST CENTRAL IOWA

CITY           SKY/WX    TMP DP  RH WIND       PRES   REMARKS
DAVENPORT      CLOUDY    41  37  86 NE32G41   29.91F
6HR MIN TEMP:  39; 6HR MAX TEMP:  43; 6HR PCP:  0.72;

IOWA CITY      CLOUDY    44  39  82 NE18G36   29.97R
6HR MIN TEMP:  43; 6HR MAX TEMP:  45; 6HR PCP:  0.50;

MT. PLEASANT * CLOUDY    41  40  97 NE17G30   29.90R
MUSCATINE *    CLOUDY    43  37  81 NE23G37   29.93R
QUAD CITIES    LGT RAIN  41  36  82 NE24G36   29.88F
6HR MIN TEMP:  41; 6HR MAX TEMP:  44; 6HR PCP:  0.90;

$$

IAZ062-063-075>077-085>089-095>099-300100-
   SOUTHEAST IOWA

CITY           SKY/WX    TMP DP  RH WIND       PRES   REMARKS
BURLINGTON     CLOUDY    41  41 100 NE18G32   29.89S
6HR MIN TEMP:  41; 6HR MAX TEMP:  43; 6HR PCP:  1.07;

FAIRFIELD *    CLOUDY    41  39  93 NE17G26   29.93R
FORT MADISON * CLOUDY    43  41  93 NE21G28   29.89F
KEOKUK *       CLOUDY    41  41 100 NE18      29.85F
OSKALOOSA *    CLOUDY    41  39  91 NE20      29.95R FOG
CENTERVILLE *  LGT RAIN  41  41 100 NE5G22    29.96R
OTTUMWA        LGT RAIN  42  41  96 NE18G31   29.93R FOG
6HR MIN TEMP:  42; 6HR MAX TEMP:  44; 6HR PCP:  0.37;

WASHINGTON *   CLOUDY    41  39  93 NE25G37   29.92S
$$

ABBREVIATIONS USED IN REMARKS
   TC - TEMPERATURES IN CELSIUS
  WCI - WIND CHILL INDEX
   HX - HEAT INDEX
  VSB - VISIBILITY
$$





USA.gov is the U.S. government's official web portal to all federal, state and local government web resources and services.